When you browse on this site, cookies collect data to enhance your experience and personalize the content and advertising you see.
Visit our Privacy Policy to learn more. By continuing to use the site, you agree to this use of cookies and data.
  • Em Portugal
  • Lista de países
  • Para 7 dias
  • Temperatura da água
  • Mapas de satélite
  • Mapa do tempo
  • Widgets de tempo
  • user-avatar
    Iniciar Sessão

    Previsão horária em Stara Zagora

    Hoje, 21 Abril, Domingo

    Tempo Temperatura Precipitação Vento Pressão Humidade
    00:00 +5°C° 0 mm 2 m/s 750 mmHg 62%
    01:00 +5°C° 0 mm 2 m/s 750 mmHg 62%
    02:00 +5°C° 0 mm 2 m/s 749 mmHg 63%
    03:00 +4°C° 0 mm 2 m/s 749 mmHg 63%
    04:00 +4°C° 0 mm 2 m/s 749 mmHg 64%
    05:00 +4°C° 0 mm 2 m/s 749 mmHg 65%
    06:00 +7°C° 0 mm 1 m/s 749 mmHg 61%
    07:00 +9°C° 0 mm 1 m/s 748 mmHg 58%
    08:00 +10°C° 0 mm 1 m/s 748 mmHg 54%
    09:00 +12°C° 0 mm 1 m/s 748 mmHg 50%
    10:00 +13°C° 0 mm 2 m/s 748 mmHg 46%
    11:00 +15°C° 0 mm 2 m/s 748 mmHg 42%
    12:00 +15°C° 0 mm 2 m/s 747 mmHg 42%
    13:00 +16°C° 0 mm 2 m/s 747 mmHg 42%
    14:00 +16°C° 0 mm 2 m/s 747 mmHg 41%
    15:00 +16°C° 0 mm 2 m/s 746 mmHg 43%
    16:00 +16°C° 0 mm 1 m/s 746 mmHg 45%
    17:00 +16°C° 0 mm 1 m/s 746 mmHg 47%
    18:00 +14°C° 0 mm 1 m/s 746 mmHg 54%
    19:00 +12°C° 0 mm 1 m/s 746 mmHg 61%
    20:00 +10°C° 0 mm 1 m/s 745 mmHg 68%
    21:00 +9°C° 0 mm 1 m/s 746 mmHg 71%
    22:00 +8°C° 0 mm 1 m/s 746 mmHg 74%
    23:00 +8°C° 0 mm 1 m/s 746 mmHg 76%

    Amanhã, 22 Abril, Segunda-feira

    Tempo Temperatura Precipitação Vento Pressão Humidade
    00:00 +7°C° 0 mm 1 m/s 746 mmHg 79%
    01:00 +7°C° 0 mm 1 m/s 745 mmHg 81%
    02:00 +6°C° 0 mm 1 m/s 745 mmHg 83%
    03:00 +6°C° 0 mm 1 m/s 745 mmHg 84%
    04:00 +5°C° 0 mm 0 m/s 745 mmHg 85%
    05:00 +4°C° 0 mm 0 m/s 745 mmHg 86%
    06:00 +6°C° 0 mm 0 m/s 745 mmHg 81%
    07:00 +9°C° 0 mm 1 m/s 745 mmHg 75%
    08:00 +11°C° 0 mm 1 m/s 745 mmHg 70%
    09:00 +12°C° 0 mm 1 m/s 745 mmHg 65%
    10:00 +14°C° 0 mm 2 m/s 745 mmHg 60%
    11:00 +16°C° 0 mm 3 m/s 745 mmHg 55%
    12:00 +17°C° 0 mm 3 m/s 744 mmHg 54%
    13:00 +18°C° 0 mm 3 m/s 744 mmHg 53%
    14:00 +19°C° 0 mm 4 m/s 744 mmHg 52%
    15:00 +18°C° 0 mm 4 m/s 744 mmHg 55%
    16:00 +18°C° 0 mm 4 m/s 744 mmHg 58%
    17:00 +17°C° 0 mm 5 m/s 744 mmHg 61%
    18:00 +15°C° 0.1 mm 4 m/s 744 mmHg 69%
    19:00 +13°C° 0.1 mm 4 m/s 744 mmHg 77%
    20:00 +11°C° 0.1 mm 4 m/s 744 mmHg 86%
    21:00 +10°C° 0 mm 4 m/s 744 mmHg 87%
    22:00 +9°C° 0 mm 3 m/s 745 mmHg 88%
    23:00 +8°C° 0 mm 3 m/s 745 mmHg 90%

    Depois de amanhã, 23 Abril, Terça-feira

    Tempo Temperatura Precipitação Vento Pressão Humidade
    00:00 +7°C° 0 mm 3 m/s 745 mmHg 87%
    01:00 +7°C° 0 mm 3 m/s 745 mmHg 84%
    02:00 +5°C° 0 mm 3 m/s 745 mmHg 81%
    03:00 +5°C° 0 mm 3 m/s 745 mmHg 78%
    04:00 +6°C° 0 mm 2 m/s 746 mmHg 76%
    05:00 +6°C° 0 mm 2 m/s 746 mmHg 73%
    06:00 +6°C° 0.2 mm 2 m/s 746 mmHg 75%
    07:00 +5°C° 0.2 mm 3 m/s 746 mmHg 77%
    08:00 +5°C° 0.2 mm 3 m/s 746 mmHg 79%
    09:00 +8°C° 0.1 mm 3 m/s 746 mmHg 74%
    10:00 +8°C° 0.1 mm 4 m/s 746 mmHg 70%
    11:00 +10°C° 0.1 mm 4 m/s 746 mmHg 65%
    12:00 +10°C° 0 mm 5 m/s 746 mmHg 63%
    13:00 +12°C° 0 mm 5 m/s 746 mmHg 61%
    14:00 +14°C° 0 mm 6 m/s 746 mmHg 59%
    15:00 +14°C° 0 mm 5 m/s 745 mmHg 62%
    16:00 +14°C° 0 mm 5 m/s 745 mmHg 65%
    17:00 +13°C° 0 mm 5 m/s 745 mmHg 68%
    18:00 +12°C° 0 mm 4 m/s 745 mmHg 74%
    19:00 +11°C° 0 mm 4 m/s 745 mmHg 79%
    20:00 +9°C° 0 mm 3 m/s 745 mmHg 85%
    21:00 +9°C° 0 mm 3 m/s 745 mmHg 84%
    22:00 +8°C° 0 mm 3 m/s 746 mmHg 83%
    23:00 +8°C° 0 mm 3 m/s 746 mmHg 83%

    24 Abril, Quarta-feira

    Tempo Temperatura Precipitação Vento Pressão Humidade
    00:00 +7°C° 0 mm 2 m/s 746 mmHg 84%
    01:00 +7°C° 0 mm 2 m/s 746 mmHg 86%
    02:00 +6°C° 0 mm 2 m/s 746 mmHg 87%
    03:00 +7°C° 0 mm 1 m/s 746 mmHg 87%
    04:00 +7°C° 0 mm 1 m/s 746 mmHg 88%
    05:00 +6°C° 0 mm 1 m/s 746 mmHg 88%
    06:00 +8°C° 0 mm 1 m/s 747 mmHg 81%
    07:00 +10°C° 0 mm 1 m/s 747 mmHg 75%
    08:00 +11°C° 0 mm 0 m/s 747 mmHg 69%
    09:00 +14°C° 0 mm 1 m/s 747 mmHg 65%
    10:00 +16°C° 0 mm 2 m/s 748 mmHg 61%
    11:00 +18°C° 0 mm 2 m/s 748 mmHg 57%
    12:00 +19°C° 0 mm 2 m/s 748 mmHg 56%
    13:00 +20°C° 0 mm 2 m/s 747 mmHg 55%
    14:00 +21°C° 0 mm 3 m/s 747 mmHg 54%
    15:00 +21°C° 0 mm 3 m/s 747 mmHg 56%
    16:00 +21°C° 0 mm 3 m/s 747 mmHg 59%
    17:00 +21°C° 0 mm 3 m/s 746 mmHg 61%
    18:00 +19°C° 0 mm 3 m/s 747 mmHg 69%
    19:00 +17°C° 0 mm 3 m/s 747 mmHg 78%
    20:00 +14°C° 0 mm 3 m/s 747 mmHg 86%
    21:00 +13°C° 0 mm 3 m/s 747 mmHg 87%
    22:00 +12°C° 0 mm 3 m/s 747 mmHg 88%
    23:00 +11°C° 0 mm 3 m/s 748 mmHg 89%

    25 Abril, Quinta-feira

    Tempo Temperatura Precipitação Vento Pressão Humidade
    00:00 +10°C° 0 mm 2 m/s 748 mmHg 90%
    01:00 +10°C° 0 mm 2 m/s 747 mmHg 91%
    02:00 +9°C° 0 mm 2 m/s 747 mmHg 92%
    03:00 +9°C° 0 mm 2 m/s 747 mmHg 92%
    04:00 +9°C° 0 mm 1 m/s 747 mmHg 92%
    05:00 +9°C° 0 mm 1 m/s 747 mmHg 93%
    06:00 +11°C° 0 mm 1 m/s 748 mmHg 87%
    07:00 +12°C° 0 mm 1 m/s 748 mmHg 82%
    08:00 +14°C° 0 mm 1 m/s 748 mmHg 76%
    09:00 +16°C° 0 mm 2 m/s 748 mmHg 70%
    10:00 +18°C° 0 mm 2 m/s 748 mmHg 65%
    11:00 +20°C° 0 mm 2 m/s 748 mmHg 59%
    12:00 +21°C° 0 mm 2 m/s 748 mmHg 57%
    13:00 +23°C° 0 mm 2 m/s 748 mmHg 54%
    14:00 +24°C° 0 mm 3 m/s 748 mmHg 52%
    15:00 +22°C° 0 mm 3 m/s 747 mmHg 55%
    16:00 +22°C° 0 mm 3 m/s 747 mmHg 58%
    17:00 +22°C° 0 mm 3 m/s 747 mmHg 61%
    18:00 +19°C° 0 mm 3 m/s 747 mmHg 70%
    19:00 +17°C° 0 mm 3 m/s 747 mmHg 79%
    20:00 +13°C° 0 mm 3 m/s 747 mmHg 88%
    21:00 +12°C° 0 mm 3 m/s 747 mmHg 85%
    22:00 +12°C° 0 mm 2 m/s 747 mmHg 83%
    23:00 +12°C° 0 mm 2 m/s 747 mmHg 80%

    26 Abril, Sexta-feira

    Tempo Temperatura Precipitação Vento Pressão Humidade
    00:00 +10°C° 0 mm 2 m/s 746 mmHg 79%
    01:00 +10°C° 0 mm 2 m/s 746 mmHg 78%
    02:00 +11°C° 0 mm 1 m/s 746 mmHg 77%
    03:00 +11°C° 0 mm 1 m/s 746 mmHg 78%
    04:00 +10°C° 0 mm 1 m/s 746 mmHg 79%
    05:00 +10°C° 0 mm 1 m/s 746 mmHg 80%
    06:00 +11°C° 0 mm 1 m/s 746 mmHg 77%
    07:00 +13°C° 0 mm 1 m/s 746 mmHg 74%
    08:00 +14°C° 0 mm 1 m/s 746 mmHg 70%
    09:00 +16°C° 0 mm 2 m/s 746 mmHg 67%
    10:00 +17°C° 0 mm 2 m/s 745 mmHg 63%
    11:00 +19°C° 0 mm 2 m/s 745 mmHg 60%
    12:00 +20°C° 0 mm 2 m/s 745 mmHg 58%
    13:00 +21°C° 0 mm 3 m/s 744 mmHg 56%
    14:00 +22°C° 0 mm 3 m/s 744 mmHg 54%
    15:00 +22°C° 0 mm 3 m/s 743 mmHg 56%
    16:00 +22°C° 0 mm 3 m/s 743 mmHg 57%
    17:00 +21°C° 0 mm 3 m/s 743 mmHg 59%
    18:00 +19°C° 0 mm 3 m/s 742 mmHg 66%
    19:00 +17°C° 0 mm 3 m/s 742 mmHg 73%
    20:00 +13°C° 0 mm 3 m/s 742 mmHg 80%
    21:00 +12°C° 0 mm 3 m/s 742 mmHg 78%
    22:00 +13°C° 0 mm 2 m/s 742 mmHg 76%
    23:00 +12°C° 0 mm 2 m/s 742 mmHg 74%
    Mostrar mais